Regional Weather Roundup
Issued by NWS

Home | Current Version | Previous Version | Text Only | Print | Product List | Glossary Off
Versions: 1 2 3 4 5 6 7 8 9 10 11 12 13 14 15 16 17 18 19 20 21 22 23 24 25 26 27 28 29 30 31 32 33 34 35 36 37 38 39 40 41 42 43 44 45 46 47 48 49 50

000
ASUS43 KMPX 040210
RWRMN
WEATHER ROUNDUP FOR MINNESOTA
NATIONAL WEATHER SERVICE TWIN CITIES/CHANHASSEN MN
800 PM CST SAT DEC 03 2016


NOTE: "FAIR" INDICATES FEW OR NO CLOUDS BELOW 12,000 FEET WITH NO
SIGNIFICANT WEATHER AND/OR OBSTRUCTIONS TO VISIBILITY. N/A MEANS
CURRENT SKY AND/OR WEATHER CONDITIONS ARE NOT AVAILABLE.

MNZ060>063-068>070-040300-
   Twin Cities Metro

CITY           SKY/WX    TMP DP  RH WIND       PRES   REMARKS
TWIN CITIES    CLOUDY    31  23  72 SE10      30.17F WCI  22
ST PAUL        CLOUDY    31  25  78 SE9       30.19F WCI  23
CRYSTAL        CLOUDY    32  22  66 SE8       30.16F WCI  25
BLAINE         CLOUDY    32  25  74 SE7       30.16F WCI  26
LAKEVILLE      CLOUDY    30  27  86 SE6       30.16F WCI  24
EDEN PRAIRIE   CLOUDY    32  24  72 SE8       30.15F WCI  25
SOUTH ST PAUL  CLOUDY    32  24  72 SE8       30.17F WCI  25
LAKE ELMO      CLOUDY    32  25  74 SE7       30.19F WCI  26
$$
MNZ001>005-007-008-013>017-022>024-027-028-040300-
   Northwest Minnesota

CITY           SKY/WX    TMP DP  RH WIND       PRES   REMARKS
BEMIDJI        PTCLDY    24  20  84 SE12      30.05F WCI  13
HALLOCK        CLOUDY    28  25  86 SE16      29.97F WCI  17
ROSEAU         CLOUDY    25  21  86 SE10      30.04F WCI  15
WARROAD        CLEAR     25  19  80 SE10      30.05F WCI  15
THIEF RVR FALL FLURRIES  26  21  81 SE16      30.00F WCI  14
CROOKSTON      LGT SNOW  28  27  93 SE16      29.99F WCI  17
FOSSTON        CLOUDY    27  21  80 SE10G18   30.01F WCI  17
DETROIT LAKES  CLOUDY    30  28  93 SE13      30.02F WCI  20
MOORHEAD       CLOUDY    32  28  86 SE20G25   29.98F WCI  20
PARK RAPIDS    LGT SNOW  26  21  81 SE13      30.05F WCI  15
$$
MNZ006-009>011-018-025>026-040300-
   North Central Minnesota

CITY           SKY/WX    TMP DP  RH WIND       PRES   REMARKS
BAUDETTE       CLEAR     23  18  81 SE10      30.07F WCI  12
FLAG ISLAND    CLOUDY    27  23  86 S21       30.06F WCI  13
INTL FALLS     CLOUDY    27  19  72 S7        30.12F WCI  19
WASKISH        CLEAR     19  18  93 SE5       30.08F WCI  13
BIG FORK       MOCLDY    27  19  74 S10       30.11F WCI  17
LONGVILLE      CLOUDY    27  21  80 SE12      30.10F WCI  16
GRAND RAPIDS   MOCLDY    27  20  75 SE8       30.13F WCI  19
CRANE LAKE     CLOUDY    27  19  74 S8        30.16F WCI  18
ORR            CLOUDY    27  18  69 S6        30.10F WCI  20
COOK           CLOUDY    27  19  74 S5        30.13F WCI  21
$$
MNZ012-019>021-037-040300-
   Northeast Minnesota

CITY           SKY/WX    TMP DP  RH WIND       PRES   REMARKS
DULUTH         CLOUDY    28  20  71 S12       30.16F WCI  18
ELY            CLOUDY    27  21  80 CALM      30.14F
HIBBING        CLOUDY    26  18  71 S7        30.13F WCI  18
EVELETH        MOCLDY    28  20  70 S10       30.15F WCI  19
DULUTH HARBOR  CLOUDY    32  23  69 S6        30.21F WCI  26
TWO HARBORS    CLOUDY    34  25  69 S6        30.16F WCI  29
SILVER BAY     CLOUDY    30  21  69 S5        30.17S WCI  25
GRAND MARAIS     N/A     35  28  75 S7        30.21S WCI  29
G MARAIS ARPRT CLOUDY    27  21  80 S3        30.15F
$$
MNZ029>031-032-039>041-046>048-054>057-064-040300-
   West Central Minnesota

CITY           SKY/WX    TMP DP  RH WIND       PRES   REMARKS
FERGUS FALLS   CLOUDY    30  30 100 SE18      30.05F WCI  18
WHEATON        CLOUDY   N/A N/A N/A SE15      30.02  HAZE
MORRIS         LGT SNOW  34  32  93 SE17      30.02F WCI  23
ALEXANDRIA     CLOUDY    30  29  96 SE10      30.06F WCI  21
ELBOW LAKE     LGT SNOW  31  31  99 E14       30.02F WCI  21
WADENA         MIX PCPN  27  25  93 SE12      30.05F WCI  16
GLENWOOD       LGT SNOW  30  30 100 SE12      30.06F WCI  21
APPLETON       CLOUDY    36  32  87 SE13G18   30.03F FOG
BENSON         LGT SNOW  34  30  86 S15       30.05F WCI  24
ORTONVILLE     CLOUDY    34  30  86 CALM      30.01F FOG
MADISON        CLOUDY    36  36 100 SE14      30.03F FOG
WILLMAR        LGT SNOW  32  30  93 SE10      30.09F WCI  24
$$
MNZ033>034-036-042>043-049>051-058-059-040300-
   Central Minnesota

CITY           SKY/WX    TMP DP  RH WIND       PRES   REMARKS
ST CLOUD       CLOUDY    30  24  78 SE12      30.13F WCI  20
PAYNESVILLE    CLOUDY    32  28  87 SE12      30.10F WCI  23
AITKIN         CLOUDY    30  21  69 SE6       30.11F WCI  24
PINE RIVER     LGT SNOW  27  23  86 SE9       30.12F WCI  17
BRAINERD       LGT SNOW  27  23  85 SE7       30.11F FOG     WCI  19
STAPLES        CLOUDY    27  23  86 SE6       30.08F WCI  20
LONG PRAIRIE   CLOUDY    30  27  86 E8        30.08F WCI  23
LITTLE FALLS   CLOUDY    30  23  74 SE8       30.11F WCI  23
LITCHFIELD     CLOUDY    34  28  80 SE9       30.11F WCI  26
BUFFALO        CLOUDY    32  25  76 SE6       30.15F WCI  26
MAPLE LAKE     CLOUDY    32  28  83 SE5       30.14F WCI  27
$$
MNZ037-044-045-052-053-040300-
   East Central Minnesota

CITY           SKY/WX    TMP DP  RH WIND       PRES   REMARKS
PRINCETON      CLOUDY    30  23  74 SE7       30.15F WCI  23
MORA           CLOUDY    30  21  69 SE6       30.17F WCI  24
CAMBRIDGE      CLOUDY    30  21  69 SE6       30.15F WCI  24
RUSH CITY      CLOUDY    28  21  74 SE7       30.18F WCI  21
MOOSE LAKE     CLOUDY    30  21  69 S3        30.15F
HINCKLEY       CLOUDY    30  23  74 S8        30.18F WCI  23
CLOQUET        CLOUDY    28  19  69 S5        30.16F WCI  23
MCGREGOR       CLOUDY    30  23  74 SE9       30.14F WCI  22
$$
MNZ071>073-080-081-089-090-097-098-040300-
   Southwest Minnesota

CITY           SKY/WX    TMP DP  RH WIND       PRES   REMARKS
MONTEVIDEO       N/A     34  34 100 S9        30.07F FOG     WCI  26
GRANITE FALLS  LGT SNOW  35  33  95 SE14      30.08F WCI  25
CANBY          CLOUDY    36  33  89 S12       30.03F
MARSHALL       CLOUDY    34  31  88 S15       30.05F WCI  24
REDWOOD FALLS  LGT SNOW  33  31  92 SE9       30.09F FOG     WCI  25
OLIVIA         LGT SNOW  32  32 100 SE10      30.08F WCI  24
PIPESTONE      LGT SNOW  34  32  93 S17       30.02F WCI  23
WINDOM         CLOUDY    34  32  93 CALM      30.09F
WORTHINGTON    MIX PCPN  32  31  96 S14       30.07F FOG     WCI  22
JACKSON        CLOUDY    32  32 100 S10       30.10F WCI  24
TRACY          CLOUDY    34  32  92 S12G18    30.05F FOG     WCI  26
SLAYTON        CLOUDY    32  31  96 S15G21    30.06F FOG     WCI  22
$$
MNZ065>067-074>077-082>085-091>093-040300-
   South Central Minnesota

CITY           SKY/WX    TMP DP  RH WIND       PRES   REMARKS
MANKATO        FLURRIES  33  31  92 SE9       30.14F WCI  25
NEW ULM        CLOUDY    34  34 100 SE8       30.12F FOG     WCI  27
ST JAMES       CLOUDY    34  34 100 S12       30.13F WCI  25
FAIRMONT       CLOUDY    33  32  96 S13       30.13F WCI  24
GLENCOE        CLOUDY    33  31  93 SE10      30.12F WCI  24
FARIBAULT      CLOUDY    34  28  80 SE8       30.16F WCI  27
OWATONNA       CLOUDY    32  28  86 SE6       30.16F WCI  26
WASECA         CLOUDY    32  30  93 SE6       30.16F FOG     WCI  26
ALBERT LEA     CLOUDY    36  36 100 S7        30.15F FOG
$$
MNZ078>079-086>088-094>096-040300-
   Southeast Minnesota

CITY           SKY/WX    TMP DP  RH WIND       PRES   REMARKS
ROCHESTER      PTCLDY    30  25  81 SE8       30.17F WCI  22
RED WING       CLOUDY    32  21  64 SE7       30.19F WCI  26
STANTON        CLOUDY    32  26  76 SE7       30.16F WCI  26
DODGE CENTER   PTCLDY    30  27  86 SE8       30.16F WCI  23
WINONA         CLOUDY    32  27  80 SE6       30.22F WCI  26
AUSTIN         MOCLDY    30  28  93 SE5       30.16F WCI  25
PRESTON        CLOUDY    30  24  78 SE3       30.19F
$$
ABBREVIATIONS USED IN REMARKS
   TC - TEMPERATURES IN CELSIUS
  WCI - WIND CHILL INDEX
   HX - HEAT INDEX
  VSB - VISIBILITY
$$




USA.gov is the U.S. government's official web portal to all federal, state and local government web resources and services.